GFSNW_prec_pwat_228.txt.gz
Precipitable_Water
0.31 0.31 0.30 0.30 0.28 0.27 0.31 0.25 0.13 0.43 0.45 0.19 0.21 0.15 0.19 0.23 0.19 0.21 0.19 0.20 0.19 0.18 0.19 0.16 0.19 0.21 0.25 0.34 0.37 0.28 0.31 0.28 0.20 0.24 0.40 0.47 0.42 0.38 0.38 0.29 0.29 0.33 0.32 0.31
0.32 0.31 0.29 0.27 0.27 0.30 0.30 0.21 0.23 0.42 0.38 0.13 0.15 0.20 0.20 0.22 0.19 0.19 0.18 0.18 0.20 0.21 0.19 0.16 0.19 0.23 0.27 0.36 0.36 0.32 0.35 0.28 0.20 0.23 0.33 0.31 0.32 0.37 0.38 0.37 0.38 0.29 0.27 0.30
0.30 0.29 0.27 0.26 0.27 0.33 0.34 0.25 0.14 0.25 0.31 0.27 0.20 0.18 0.17 0.17 0.22 0.19 0.23 0.22 0.21 0.19 0.18 0.21 0.18 0.20 0.25 0.31 0.32 0.37 0.36 0.25 0.22 0.19 0.24 0.30 0.25 0.33 0.36 0.33 0.24 0.28 0.31 0.35
0.31 0.31 0.27 0.24 0.26 0.34 0.37 0.26 0.18 0.22 0.12 0.15 0.19 0.21 0.20 0.18 0.17 0.22 0.24 0.20 0.20 0.19 0.16 0.17 0.16 0.18 0.22 0.24 0.29 0.28 0.27 0.17 0.18 0.19 0.26 0.25 0.25 0.28 0.30 0.29 0.31 0.26 0.33 0.35
0.32 0.31 0.30 0.30 0.36 0.41 0.34 0.23 0.22 0.24 0.18 0.19 0.18 0.19 0.19 0.18 0.19 0.21 0.18 0.19 0.20 0.19 0.16 0.18 0.15 0.18 0.19 0.19 0.20 0.23 0.24 0.15 0.16 0.12 0.16 0.16 0.19 0.21 0.27 0.31 0.35 0.31 0.31 0.34
0.34 0.34 0.33 0.34 0.38 0.43 0.35 0.37 0.36 0.25 0.17 0.16 0.15 0.17 0.21 0.20 0.22 0.22 0.24 0.24 0.21 0.17 0.18 0.20 0.20 0.21 0.20 0.21 0.20 0.19 0.20 0.16 0.14 0.09 0.14 0.14 0.17 0.21 0.25 0.28 0.33 0.34 0.27 0.34
0.34 0.35 0.39 0.40 0.40 0.42 0.39 0.37 0.33 0.22 0.12 0.15 0.15 0.19 0.23 0.21 0.21 0.20 0.22 0.24 0.23 0.27 0.31 0.24 0.20 0.17 0.18 0.21 0.22 0.25 0.19 0.18 0.17 0.12 0.13 0.10 0.27 0.32 0.29 0.27 0.29 0.31 0.34 0.37
0.36 0.39 0.43 0.42 0.41 0.41 0.38 0.40 0.33 0.24 0.13 0.16 0.16 0.20 0.21 0.23 0.23 0.21 0.21 0.24 0.30 0.33 0.25 0.17 0.13 0.12 0.12 0.15 0.20 0.22 0.23 0.19 0.14 0.12 0.12 0.16 0.24 0.31 0.31 0.27 0.25 0.31 0.33 0.34
0.38 0.39 0.39 0.39 0.38 0.37 0.36 0.39 0.43 0.30 0.17 0.13 0.19 0.19 0.22 0.19 0.20 0.19 0.19 0.25 0.32 0.30 0.24 0.20 0.15 0.13 0.15 0.13 0.16 0.22 0.22 0.22 0.18 0.16 0.12 0.11 0.25 0.33 0.34 0.33 0.22 0.37 0.31 0.31
0.32 0.31 0.31 0.31 0.35 0.38 0.36 0.37 0.45 0.31 0.18 0.20 0.21 0.18 0.20 0.27 0.24 0.20 0.21 0.24 0.24 0.27 0.19 0.17 0.18 0.18 0.23 0.17 0.16 0.16 0.16 0.18 0.16 0.17 0.15 0.17 0.30 0.34 0.34 0.20 0.23 0.36 0.35 0.32
0.30 0.30 0.29 0.28 0.28 0.32 0.31 0.30 0.41 0.31 0.21 0.20 0.23 0.27 0.23 0.26 0.27 0.20 0.24 0.21 0.23 0.21 0.17 0.19 0.20 0.20 0.23 0.22 0.25 0.22 0.20 0.16 0.15 0.17 0.16 0.15 0.36 0.31 0.25 0.33 0.36 0.33 0.31 0.29
0.30 0.30 0.29 0.28 0.28 0.29 0.32 0.25 0.39 0.41 0.26 0.19 0.29 0.35 0.36 0.35 0.35 0.30 0.30 0.25 0.27 0.26 0.21 0.21 0.22 0.21 0.24 0.22 0.17 0.25 0.18 0.25 0.22 0.23 0.22 0.34 0.38 0.37 0.39 0.39 0.31 0.28 0.25 0.25
0.32 0.29 0.28 0.27 0.28 0.29 0.30 0.25 0.34 0.34 0.23 0.20 0.23 0.25 0.29 0.41 0.40 0.43 0.26 0.29 0.33 0.30 0.33 0.26 0.24 0.18 0.24 0.19 0.19 0.21 0.25 0.28 0.22 0.26 0.31 0.29 0.36 0.38 0.35 0.33 0.27 0.25 0.23 0.21
0.32 0.30 0.27 0.27 0.28 0.30 0.30 0.24 0.35 0.35 0.26 0.16 0.14 0.27 0.26 0.33 0.38 0.40 0.38 0.36 0.38 0.36 0.32 0.23 0.22 0.20 0.27 0.21 0.22 0.20 0.21 0.23 0.21 0.22 0.26 0.27 0.27 0.30 0.28 0.25 0.24 0.21 0.19 0.19
0.33 0.30 0.28 0.27 0.27 0.29 0.27 0.25 0.35 0.42 0.27 0.16 0.15 0.27 0.28 0.33 0.35 0.34 0.36 0.33 0.31 0.26 0.21 0.20 0.18 0.24 0.24 0.25 0.22 0.18 0.22 0.19 0.17 0.16 0.22 0.22 0.23 0.25 0.26 0.23 0.22 0.19 0.18 0.18
0.33 0.31 0.30 0.29 0.28 0.29 0.24 0.22 0.42 0.46 0.39 0.22 0.12 0.24 0.29 0.31 0.32 0.33 0.34 0.35 0.34 0.30 0.25 0.22 0.24 0.28 0.26 0.18 0.16 0.22 0.26 0.26 0.25 0.21 0.24 0.23 0.24 0.25 0.26 0.24 0.21 0.21 0.20 0.21
0.33 0.30 0.30 0.30 0.30 0.27 0.22 0.24 0.41 0.42 0.38 0.21 0.16 0.17 0.27 0.31 0.29 0.28 0.32 0.34 0.33 0.31 0.28 0.25 0.23 0.24 0.27 0.23 0.18 0.24 0.26 0.27 0.26 0.26 0.25 0.22 0.25 0.25 0.27 0.24 0.23 0.23 0.22 0.23
0.31 0.31 0.32 0.31 0.31 0.29 0.20 0.29 0.40 0.42 0.29 0.27 0.17 0.17 0.22 0.32 0.23 0.20 0.30 0.26 0.29 0.31 0.28 0.27 0.23 0.24 0.25 0.17 0.23 0.27 0.28 0.27 0.26 0.25 0.27 0.29 0.30 0.28 0.26 0.26 0.25 0.22 0.21 0.22
0.30 0.31 0.35 0.33 0.29 0.30 0.36 0.49 0.47 0.42 0.30 0.18 0.21 0.16 0.13 0.30 0.27 0.27 0.25 0.29 0.22 0.30 0.23 0.22 0.24 0.20 0.16 0.18 0.22 0.25 0.28 0.26 0.26 0.27 0.27 0.28 0.28 0.27 0.26 0.25 0.24 0.23 0.22 0.23
0.33 0.36 0.31 0.23 0.35 0.47 0.43 0.34 0.26 0.28 0.29 0.25 0.17 0.21 0.16 0.26 0.27 0.23 0.21 0.23 0.19 0.15 0.16 0.24 0.19 0.16 0.22 0.25 0.26 0.29 0.28 0.27 0.28 0.24 0.23 0.24 0.24 0.24 0.25 0.25 0.26 0.26 0.25 0.25
0.35 0.30 0.28 0.38 0.45 0.31 0.27 0.25 0.23 0.25 0.20 0.24 0.23 0.21 0.15 0.28 0.23 0.22 0.23 0.18 0.18 0.14 0.16 0.19 0.16 0.14 0.20 0.28 0.27 0.29 0.29 0.29 0.28 0.28 0.27 0.27 0.27 0.27 0.27 0.28 0.30 0.29 0.28 0.27
0.34 0.36 0.37 0.36 0.30 0.27 0.24 0.23 0.24 0.21 0.18 0.24 0.24 0.25 0.27 0.28 0.32 0.23 0.24 0.20 0.20 0.13 0.22 0.17 0.12 0.16 0.25 0.28 0.28 0.29 0.30 0.30 0.30 0.30 0.29 0.30 0.30 0.31 0.31 0.31 0.30 0.29 0.29 0.29
0.37 0.30 0.24 0.23 0.24 0.20 0.18 0.15 0.17 0.17 0.20 0.24 0.28 0.25 0.27 0.28 0.29 0.25 0.23 0.18 0.16 0.22 0.16 0.14 0.15 0.22 0.29 0.31 0.30 0.30 0.32 0.32 0.31 0.30 0.31 0.31 0.30 0.30 0.29 0.28 0.30 0.30 0.29 0.30
0.25 0.22 0.16 0.19 0.19 0.19 0.19 0.18 0.21 0.25 0.25 0.25 0.26 0.26 0.26 0.29 0.26 0.25 0.19 0.20 0.20 0.15 0.14 0.13 0.20 0.27 0.32 0.33 0.32 0.30 0.30 0.30 0.28 0.26 0.25 0.24 0.26 0.26 0.26 0.27 0.27 0.28 0.26 0.27
0.25 0.26 0.19 0.20 0.22 0.23 0.25 0.27 0.28 0.30 0.32 0.29 0.28 0.28 0.28 0.26 0.23 0.24 0.21 0.18 0.14 0.15 0.13 0.20 0.28 0.34 0.34 0.33 0.34 0.33 0.30 0.27 0.25 0.23 0.20 0.20 0.22 0.21 0.20 0.21 0.23 0.25 0.27 0.27
0.27 0.26 0.22 0.24 0.23 0.22 0.25 0.28 0.27 0.34 0.32 0.31 0.28 0.23 0.22 0.23 0.23 0.21 0.18 0.17 0.14 0.17 0.23 0.28 0.31 0.33 0.35 0.35 0.35 0.34 0.31 0.28 0.25 0.21 0.20 0.21 0.19 0.19 0.19 0.20 0.22 0.21 0.22 0.24
0.23 0.22 0.27 0.26 0.27 0.27 0.27 0.32 0.31 0.36 0.32 0.24 0.24 0.19 0.19 0.23 0.20 0.20 0.21 0.18 0.19 0.24 0.28 0.31 0.32 0.32 0.33 0.35 0.34 0.31 0.28 0.26 0.22 0.20 0.19 0.18 0.18 0.18 0.17 0.15 0.17 0.18 0.18 0.18

GFSNW_prec_pwat_231.txt.gz
Precipitable_Water
0.32 0.32 0.32 0.29 0.29 0.32 0.28 0.20 0.15 0.39 0.41 0.14 0.17 0.13 0.17 0.19 0.16 0.20 0.19 0.19 0.18 0.17 0.17 0.15 0.17 0.16 0.20 0.26 0.32 0.27 0.35 0.28 0.20 0.22 0.34 0.41 0.40 0.34 0.34 0.26 0.26 0.31 0.29 0.27
0.34 0.33 0.30 0.27 0.26 0.27 0.21 0.16 0.21 0.39 0.34 0.09 0.12 0.17 0.17 0.20 0.17 0.17 0.19 0.19 0.21 0.21 0.17 0.16 0.16 0.18 0.22 0.27 0.29 0.29 0.32 0.23 0.17 0.18 0.26 0.31 0.30 0.35 0.38 0.36 0.34 0.28 0.25 0.26
0.32 0.31 0.29 0.26 0.26 0.29 0.22 0.16 0.12 0.23 0.27 0.22 0.16 0.14 0.15 0.15 0.21 0.19 0.23 0.21 0.22 0.19 0.17 0.19 0.15 0.16 0.21 0.24 0.26 0.34 0.30 0.24 0.20 0.16 0.20 0.28 0.23 0.27 0.32 0.34 0.26 0.28 0.29 0.33
0.31 0.29 0.28 0.26 0.26 0.29 0.20 0.18 0.15 0.20 0.11 0.15 0.17 0.19 0.18 0.16 0.15 0.20 0.22 0.19 0.20 0.19 0.15 0.14 0.13 0.16 0.18 0.21 0.23 0.26 0.26 0.15 0.18 0.19 0.20 0.20 0.21 0.22 0.28 0.31 0.33 0.27 0.33 0.34
0.32 0.34 0.33 0.30 0.29 0.29 0.18 0.15 0.17 0.22 0.16 0.18 0.17 0.18 0.16 0.17 0.19 0.19 0.16 0.19 0.20 0.21 0.17 0.16 0.13 0.16 0.16 0.17 0.20 0.21 0.24 0.15 0.16 0.12 0.15 0.19 0.21 0.24 0.27 0.30 0.35 0.34 0.36 0.34
0.36 0.34 0.33 0.33 0.32 0.30 0.22 0.29 0.31 0.20 0.15 0.15 0.14 0.15 0.18 0.18 0.22 0.21 0.22 0.22 0.21 0.19 0.20 0.24 0.22 0.23 0.21 0.21 0.21 0.19 0.20 0.17 0.14 0.10 0.14 0.19 0.18 0.26 0.28 0.30 0.35 0.33 0.29 0.39
0.38 0.35 0.33 0.32 0.31 0.30 0.27 0.30 0.27 0.18 0.12 0.14 0.14 0.18 0.21 0.20 0.21 0.19 0.20 0.21 0.22 0.25 0.30 0.26 0.21 0.19 0.20 0.23 0.26 0.26 0.19 0.17 0.16 0.11 0.12 0.09 0.27 0.36 0.34 0.32 0.33 0.35 0.38 0.39
0.35 0.35 0.34 0.33 0.33 0.33 0.29 0.33 0.26 0.20 0.12 0.15 0.15 0.18 0.19 0.21 0.23 0.19 0.18 0.21 0.27 0.31 0.27 0.21 0.16 0.14 0.14 0.18 0.23 0.22 0.24 0.19 0.14 0.12 0.12 0.16 0.26 0.31 0.28 0.28 0.28 0.36 0.35 0.37
0.33 0.33 0.32 0.33 0.34 0.32 0.32 0.35 0.38 0.25 0.15 0.12 0.17 0.17 0.19 0.17 0.17 0.16 0.18 0.26 0.30 0.28 0.25 0.22 0.17 0.15 0.16 0.15 0.16 0.23 0.23 0.24 0.19 0.15 0.12 0.12 0.22 0.30 0.39 0.37 0.22 0.37 0.35 0.33
0.28 0.27 0.28 0.32 0.34 0.34 0.35 0.34 0.39 0.26 0.16 0.19 0.20 0.16 0.16 0.23 0.20 0.16 0.20 0.22 0.21 0.27 0.20 0.17 0.18 0.17 0.24 0.18 0.19 0.19 0.19 0.20 0.16 0.16 0.14 0.18 0.29 0.33 0.38 0.21 0.23 0.37 0.36 0.33
0.27 0.27 0.26 0.26 0.27 0.33 0.30 0.30 0.38 0.30 0.20 0.19 0.22 0.25 0.21 0.23 0.23 0.17 0.21 0.18 0.21 0.20 0.15 0.16 0.18 0.18 0.21 0.20 0.22 0.21 0.21 0.19 0.17 0.18 0.16 0.13 0.34 0.33 0.24 0.31 0.35 0.33 0.30 0.28
0.28 0.27 0.26 0.27 0.28 0.28 0.29 0.25 0.39 0.40 0.26 0.18 0.26 0.30 0.33 0.32 0.31 0.26 0.25 0.22 0.22 0.24 0.19 0.18 0.19 0.18 0.20 0.20 0.14 0.23 0.15 0.21 0.21 0.23 0.20 0.31 0.37 0.35 0.39 0.39 0.32 0.29 0.24 0.23
0.29 0.27 0.26 0.26 0.28 0.28 0.26 0.24 0.30 0.32 0.22 0.20 0.23 0.24 0.32 0.35 0.37 0.39 0.22 0.26 0.29 0.27 0.30 0.22 0.21 0.17 0.23 0.16 0.16 0.18 0.20 0.26 0.19 0.21 0.21 0.23 0.28 0.33 0.31 0.31 0.26 0.24 0.22 0.19
0.30 0.28 0.27 0.27 0.27 0.28 0.28 0.21 0.33 0.31 0.25 0.14 0.16 0.27 0.24 0.32 0.36 0.37 0.36 0.31 0.35 0.32 0.29 0.21 0.19 0.17 0.25 0.19 0.20 0.18 0.20 0.22 0.19 0.18 0.21 0.23 0.23 0.27 0.30 0.26 0.26 0.24 0.20 0.19
0.32 0.30 0.28 0.28 0.27 0.28 0.28 0.25 0.27 0.40 0.25 0.14 0.14 0.25 0.30 0.30 0.32 0.33 0.36 0.34 0.31 0.27 0.22 0.19 0.16 0.22 0.23 0.24 0.22 0.18 0.22 0.19 0.17 0.15 0.20 0.20 0.20 0.25 0.27 0.25 0.25 0.21 0.18 0.18
0.33 0.31 0.30 0.29 0.28 0.28 0.24 0.20 0.36 0.43 0.39 0.20 0.11 0.23 0.27 0.30 0.31 0.31 0.32 0.35 0.35 0.32 0.26 0.24 0.24 0.27 0.25 0.19 0.16 0.22 0.25 0.25 0.25 0.20 0.22 0.23 0.25 0.29 0.30 0.28 0.26 0.23 0.21 0.21
0.33 0.30 0.30 0.31 0.31 0.26 0.20 0.21 0.36 0.45 0.39 0.20 0.13 0.15 0.26 0.31 0.29 0.29 0.29 0.34 0.32 0.32 0.29 0.26 0.25 0.23 0.28 0.21 0.16 0.22 0.25 0.27 0.27 0.27 0.24 0.20 0.24 0.26 0.29 0.27 0.26 0.25 0.24 0.23
0.32 0.30 0.31 0.32 0.32 0.29 0.19 0.34 0.41 0.39 0.29 0.25 0.14 0.15 0.20 0.31 0.24 0.21 0.29 0.25 0.28 0.28 0.28 0.28 0.23 0.25 0.25 0.18 0.20 0.23 0.25 0.27 0.27 0.26 0.25 0.24 0.26 0.29 0.29 0.30 0.27 0.24 0.23 0.23
0.29 0.32 0.35 0.32 0.27 0.26 0.32 0.44 0.44 0.44 0.29 0.16 0.18 0.15 0.12 0.30 0.26 0.28 0.26 0.29 0.20 0.28 0.23 0.23 0.24 0.19 0.16 0.18 0.20 0.24 0.26 0.26 0.25 0.27 0.27 0.26 0.25 0.26 0.27 0.27 0.26 0.24 0.24 0.25
0.31 0.37 0.31 0.24 0.35 0.46 0.43 0.38 0.30 0.30 0.28 0.25 0.15 0.20 0.14 0.24 0.25 0.24 0.23 0.24 0.19 0.16 0.18 0.25 0.20 0.16 0.20 0.23 0.25 0.26 0.28 0.28 0.27 0.24 0.23 0.24 0.24 0.25 0.26 0.26 0.28 0.29 0.29 0.29
0.33 0.29 0.27 0.37 0.47 0.34 0.26 0.24 0.24 0.26 0.21 0.24 0.23 0.22 0.16 0.22 0.17 0.22 0.25 0.19 0.20 0.15 0.17 0.19 0.17 0.14 0.18 0.26 0.27 0.30 0.30 0.29 0.28 0.28 0.28 0.28 0.27 0.27 0.27 0.27 0.28 0.29 0.29 0.28
0.34 0.35 0.38 0.36 0.30 0.25 0.21 0.22 0.25 0.20 0.16 0.23 0.23 0.25 0.26 0.26 0.33 0.25 0.24 0.20 0.21 0.14 0.23 0.18 0.14 0.16 0.23 0.28 0.28 0.30 0.32 0.32 0.31 0.32 0.30 0.30 0.30 0.30 0.29 0.28 0.27 0.27 0.27 0.28
0.38 0.30 0.22 0.20 0.23 0.19 0.17 0.14 0.17 0.17 0.20 0.24 0.27 0.25 0.29 0.30 0.31 0.26 0.25 0.19 0.17 0.23 0.17 0.15 0.15 0.20 0.28 0.30 0.31 0.32 0.34 0.33 0.33 0.31 0.30 0.29 0.27 0.28 0.27 0.26 0.26 0.25 0.23 0.25
0.23 0.18 0.14 0.16 0.18 0.19 0.19 0.18 0.18 0.23 0.25 0.25 0.28 0.27 0.26 0.28 0.26 0.26 0.21 0.21 0.22 0.17 0.14 0.13 0.17 0.24 0.30 0.34 0.34 0.33 0.32 0.32 0.30 0.28 0.27 0.23 0.21 0.20 0.22 0.22 0.21 0.21 0.21 0.23
0.23 0.24 0.17 0.18 0.21 0.23 0.23 0.24 0.26 0.28 0.31 0.29 0.27 0.28 0.29 0.26 0.24 0.25 0.22 0.19 0.16 0.16 0.14 0.18 0.25 0.28 0.30 0.32 0.34 0.34 0.34 0.32 0.29 0.27 0.24 0.20 0.20 0.18 0.18 0.19 0.20 0.20 0.20 0.20
0.27 0.28 0.23 0.24 0.22 0.20 0.22 0.24 0.25 0.32 0.32 0.32 0.30 0.26 0.23 0.21 0.23 0.22 0.19 0.18 0.16 0.17 0.22 0.27 0.30 0.31 0.32 0.31 0.33 0.35 0.35 0.31 0.28 0.26 0.22 0.20 0.19 0.18 0.17 0.18 0.17 0.16 0.17 0.16
0.24 0.22 0.27 0.26 0.25 0.23 0.25 0.28 0.30 0.36 0.31 0.26 0.27 0.21 0.17 0.22 0.20 0.20 0.23 0.19 0.20 0.23 0.26 0.29 0.31 0.32 0.32 0.34 0.36 0.36 0.31 0.28 0.26 0.25 0.22 0.21 0.21 0.20 0.16 0.14 0.18 0.20 0.21 0.22

GFSNW_prec_pwat_234.txt.gz
Precipitable_Water
0.35 0.32 0.30 0.33 0.34 0.37 0.32 0.22 0.14 0.36 0.34 0.11 0.14 0.11 0.15 0.18 0.15 0.19 0.16 0.18 0.16 0.15 0.16 0.14 0.13 0.12 0.17 0.22 0.24 0.22 0.31 0.26 0.16 0.20 0.29 0.38 0.32 0.31 0.31 0.24 0.23 0.27 0.23 0.24
0.32 0.31 0.30 0.32 0.35 0.35 0.24 0.19 0.21 0.35 0.28 0.08 0.11 0.16 0.15 0.17 0.15 0.15 0.15 0.15 0.19 0.19 0.16 0.15 0.14 0.14 0.19 0.23 0.22 0.23 0.29 0.21 0.16 0.16 0.19 0.24 0.25 0.29 0.33 0.35 0.34 0.27 0.22 0.23
0.32 0.30 0.28 0.27 0.33 0.32 0.24 0.15 0.10 0.20 0.22 0.20 0.14 0.12 0.13 0.13 0.18 0.17 0.19 0.17 0.19 0.18 0.16 0.19 0.13 0.12 0.18 0.21 0.22 0.27 0.28 0.21 0.18 0.15 0.18 0.22 0.24 0.30 0.35 0.33 0.26 0.27 0.28 0.30
0.30 0.28 0.26 0.28 0.30 0.31 0.20 0.15 0.13 0.17 0.10 0.13 0.14 0.15 0.15 0.12 0.13 0.18 0.19 0.16 0.18 0.18 0.15 0.15 0.13 0.15 0.17 0.19 0.21 0.24 0.23 0.16 0.17 0.19 0.20 0.26 0.28 0.28 0.31 0.30 0.33 0.27 0.31 0.32
0.30 0.28 0.26 0.27 0.32 0.29 0.18 0.11 0.12 0.17 0.14 0.16 0.13 0.15 0.13 0.14 0.15 0.16 0.13 0.14 0.18 0.21 0.18 0.18 0.14 0.17 0.16 0.17 0.20 0.22 0.23 0.14 0.16 0.12 0.16 0.21 0.24 0.27 0.29 0.32 0.33 0.34 0.35 0.32
0.32 0.30 0.29 0.29 0.31 0.30 0.20 0.23 0.22 0.14 0.14 0.13 0.12 0.13 0.15 0.15 0.18 0.17 0.19 0.18 0.18 0.17 0.21 0.23 0.22 0.23 0.23 0.24 0.24 0.20 0.19 0.17 0.14 0.08 0.14 0.18 0.16 0.25 0.28 0.30 0.34 0.34 0.27 0.33
0.33 0.33 0.32 0.32 0.31 0.29 0.21 0.22 0.19 0.11 0.10 0.11 0.12 0.15 0.16 0.16 0.18 0.16 0.17 0.20 0.20 0.23 0.33 0.30 0.22 0.20 0.23 0.25 0.26 0.26 0.19 0.18 0.17 0.11 0.13 0.10 0.24 0.35 0.34 0.31 0.32 0.35 0.35 0.37
0.35 0.34 0.32 0.33 0.32 0.30 0.25 0.25 0.18 0.12 0.09 0.12 0.13 0.15 0.16 0.18 0.20 0.17 0.17 0.21 0.26 0.32 0.27 0.19 0.15 0.13 0.15 0.17 0.22 0.21 0.23 0.20 0.15 0.12 0.11 0.16 0.22 0.29 0.30 0.28 0.28 0.36 0.34 0.35
0.36 0.34 0.33 0.31 0.33 0.32 0.29 0.27 0.27 0.16 0.09 0.10 0.15 0.15 0.18 0.15 0.15 0.15 0.18 0.26 0.30 0.28 0.21 0.18 0.14 0.14 0.19 0.18 0.19 0.25 0.23 0.24 0.18 0.16 0.12 0.12 0.22 0.31 0.38 0.37 0.21 0.36 0.35 0.29
0.35 0.35 0.33 0.31 0.31 0.34 0.32 0.29 0.30 0.18 0.10 0.16 0.16 0.13 0.15 0.21 0.19 0.16 0.18 0.20 0.20 0.25 0.15 0.14 0.14 0.15 0.22 0.15 0.16 0.19 0.20 0.19 0.16 0.17 0.15 0.19 0.28 0.32 0.37 0.19 0.21 0.34 0.31 0.29
0.30 0.28 0.27 0.28 0.29 0.32 0.31 0.28 0.34 0.21 0.14 0.17 0.20 0.22 0.20 0.21 0.21 0.15 0.19 0.16 0.19 0.17 0.12 0.13 0.14 0.15 0.18 0.17 0.17 0.17 0.18 0.18 0.17 0.15 0.12 0.12 0.30 0.26 0.21 0.28 0.35 0.32 0.28 0.25
0.26 0.25 0.25 0.24 0.24 0.26 0.31 0.23 0.35 0.32 0.17 0.18 0.25 0.25 0.29 0.29 0.29 0.25 0.24 0.20 0.20 0.20 0.15 0.15 0.16 0.15 0.18 0.17 0.11 0.21 0.14 0.20 0.16 0.15 0.13 0.27 0.31 0.31 0.36 0.38 0.28 0.25 0.23 0.21
0.27 0.26 0.25 0.25 0.26 0.25 0.24 0.26 0.31 0.26 0.18 0.16 0.16 0.16 0.29 0.35 0.36 0.38 0.22 0.25 0.27 0.25 0.27 0.19 0.18 0.13 0.19 0.13 0.14 0.16 0.19 0.25 0.18 0.16 0.16 0.18 0.22 0.28 0.28 0.28 0.26 0.27 0.24 0.20
0.27 0.27 0.26 0.25 0.26 0.27 0.23 0.19 0.27 0.26 0.21 0.12 0.15 0.30 0.26 0.30 0.33 0.36 0.35 0.32 0.34 0.32 0.29 0.20 0.16 0.14 0.23 0.17 0.19 0.18 0.19 0.21 0.19 0.17 0.17 0.19 0.19 0.24 0.27 0.28 0.27 0.26 0.23 0.20
0.28 0.27 0.26 0.26 0.27 0.27 0.24 0.23 0.29 0.35 0.22 0.13 0.13 0.21 0.26 0.31 0.30 0.33 0.37 0.35 0.32 0.30 0.25 0.22 0.18 0.21 0.21 0.23 0.22 0.17 0.21 0.19 0.16 0.14 0.20 0.20 0.18 0.24 0.29 0.26 0.26 0.26 0.21 0.19
0.29 0.28 0.27 0.27 0.28 0.26 0.20 0.15 0.26 0.34 0.37 0.19 0.11 0.23 0.24 0.28 0.30 0.30 0.32 0.34 0.35 0.33 0.28 0.25 0.25 0.27 0.24 0.18 0.15 0.18 0.22 0.25 0.25 0.22 0.25 0.24 0.24 0.26 0.28 0.27 0.27 0.27 0.23 0.22
0.31 0.29 0.29 0.30 0.29 0.24 0.19 0.18 0.34 0.42 0.41 0.20 0.11 0.14 0.25 0.32 0.31 0.30 0.29 0.33 0.32 0.31 0.29 0.24 0.25 0.26 0.27 0.22 0.15 0.18 0.22 0.25 0.27 0.29 0.26 0.21 0.24 0.23 0.27 0.29 0.29 0.29 0.26 0.25
0.30 0.29 0.31 0.32 0.32 0.28 0.19 0.34 0.43 0.43 0.28 0.25 0.12 0.14 0.21 0.30 0.24 0.23 0.30 0.25 0.28 0.27 0.26 0.27 0.24 0.27 0.26 0.17 0.18 0.22 0.24 0.26 0.27 0.27 0.25 0.24 0.25 0.26 0.27 0.29 0.28 0.26 0.25 0.26
0.29 0.31 0.32 0.30 0.25 0.23 0.26 0.42 0.44 0.43 0.30 0.16 0.17 0.14 0.12 0.29 0.27 0.27 0.27 0.29 0.21 0.30 0.23 0.22 0.25 0.21 0.16 0.16 0.19 0.22 0.24 0.24 0.24 0.26 0.25 0.25 0.24 0.25 0.26 0.27 0.27 0.25 0.26 0.27
0.31 0.31 0.29 0.22 0.34 0.47 0.44 0.39 0.33 0.34 0.33 0.28 0.16 0.21 0.15 0.24 0.24 0.23 0.23 0.26 0.21 0.17 0.20 0.27 0.21 0.16 0.19 0.21 0.24 0.25 0.26 0.27 0.28 0.23 0.22 0.24 0.24 0.24 0.25 0.25 0.27 0.27 0.27 0.27
0.29 0.27 0.27 0.38 0.48 0.36 0.29 0.22 0.22 0.25 0.21 0.23 0.20 0.17 0.13 0.22 0.18 0.19 0.25 0.20 0.21 0.16 0.18 0.18 0.17 0.15 0.18 0.25 0.26 0.28 0.29 0.30 0.29 0.29 0.29 0.29 0.28 0.26 0.26 0.26 0.27 0.27 0.26 0.24
0.32 0.34 0.38 0.38 0.31 0.26 0.20 0.20 0.24 0.21 0.16 0.21 0.21 0.23 0.23 0.22 0.28 0.26 0.26 0.21 0.22 0.15 0.24 0.19 0.15 0.16 0.21 0.25 0.27 0.30 0.31 0.31 0.31 0.33 0.32 0.32 0.30 0.29 0.26 0.24 0.24 0.25 0.25 0.24
0.39 0.30 0.24 0.23 0.24 0.18 0.16 0.14 0.17 0.18 0.20 0.24 0.27 0.25 0.28 0.31 0.31 0.26 0.25 0.20 0.18 0.25 0.19 0.16 0.16 0.19 0.25 0.28 0.30 0.31 0.34 0.34 0.34 0.34 0.32 0.29 0.28 0.26 0.23 0.21 0.22 0.22 0.21 0.22
0.23 0.18 0.13 0.14 0.15 0.16 0.18 0.17 0.18 0.22 0.23 0.25 0.28 0.28 0.27 0.28 0.25 0.25 0.20 0.22 0.22 0.17 0.15 0.14 0.17 0.22 0.27 0.31 0.33 0.33 0.32 0.34 0.33 0.31 0.30 0.28 0.25 0.20 0.19 0.19 0.19 0.18 0.17 0.18
0.19 0.20 0.13 0.15 0.19 0.22 0.24 0.25 0.25 0.27 0.29 0.27 0.27 0.29 0.29 0.27 0.24 0.25 0.22 0.19 0.16 0.17 0.15 0.18 0.24 0.27 0.29 0.31 0.33 0.32 0.31 0.32 0.31 0.29 0.27 0.25 0.22 0.20 0.19 0.19 0.18 0.18 0.18 0.19
0.23 0.23 0.20 0.25 0.24 0.21 0.24 0.24 0.25 0.29 0.30 0.30 0.29 0.26 0.25 0.24 0.23 0.21 0.19 0.17 0.15 0.17 0.20 0.22 0.28 0.29 0.31 0.32 0.33 0.34 0.35 0.35 0.32 0.30 0.27 0.25 0.22 0.20 0.20 0.19 0.18 0.20 0.21 0.21
0.23 0.21 0.27 0.28 0.27 0.24 0.23 0.24 0.25 0.33 0.29 0.24 0.26 0.22 0.21 0.24 0.20 0.20 0.22 0.19 0.19 0.21 0.24 0.28 0.29 0.30 0.31 0.33 0.35 0.35 0.35 0.33 0.33 0.33 0.32 0.28 0.24 0.22 0.19 0.16 0.19 0.20 0.22 0.23

GFSNW_prec_pwat_237.txt.gz
Precipitable_Water
0.85 0.81 0.67 0.38 0.40 0.37 0.29 0.24 0.12 0.33 0.29 0.10 0.13 0.11 0.14 0.17 0.15 0.18 0.16 0.16 0.16 0.15 0.16 0.11 0.12 0.12 0.14 0.19 0.21 0.17 0.24 0.23 0.16 0.16 0.24 0.32 0.31 0.29 0.30 0.22 0.22 0.27 0.24 0.23
0.74 0.53 0.34 0.35 0.37 0.32 0.25 0.20 0.21 0.33 0.22 0.07 0.10 0.15 0.13 0.15 0.14 0.15 0.14 0.13 0.16 0.18 0.16 0.11 0.13 0.13 0.17 0.19 0.19 0.19 0.25 0.19 0.13 0.14 0.19 0.26 0.26 0.31 0.33 0.33 0.32 0.25 0.22 0.23
0.42 0.36 0.36 0.37 0.36 0.32 0.26 0.18 0.11 0.18 0.18 0.17 0.11 0.11 0.12 0.11 0.17 0.15 0.16 0.15 0.18 0.16 0.14 0.17 0.13 0.13 0.16 0.19 0.20 0.26 0.26 0.19 0.17 0.14 0.18 0.23 0.23 0.28 0.32 0.31 0.25 0.25 0.25 0.27
0.37 0.36 0.37 0.39 0.37 0.32 0.21 0.15 0.12 0.15 0.10 0.12 0.13 0.14 0.13 0.11 0.10 0.16 0.17 0.15 0.16 0.16 0.12 0.13 0.12 0.14 0.16 0.20 0.23 0.25 0.23 0.15 0.18 0.19 0.21 0.25 0.27 0.27 0.29 0.27 0.29 0.23 0.26 0.27
0.32 0.31 0.34 0.37 0.35 0.29 0.17 0.11 0.11 0.16 0.14 0.15 0.13 0.13 0.12 0.10 0.13 0.13 0.12 0.12 0.15 0.18 0.16 0.15 0.12 0.15 0.16 0.18 0.23 0.22 0.24 0.15 0.17 0.13 0.20 0.24 0.22 0.27 0.28 0.29 0.29 0.29 0.29 0.27
0.31 0.31 0.33 0.32 0.31 0.27 0.18 0.21 0.19 0.12 0.14 0.13 0.11 0.11 0.12 0.12 0.15 0.15 0.17 0.16 0.16 0.15 0.18 0.22 0.21 0.21 0.23 0.24 0.23 0.20 0.19 0.18 0.15 0.10 0.16 0.19 0.17 0.25 0.27 0.28 0.30 0.29 0.22 0.30
0.32 0.30 0.30 0.32 0.30 0.26 0.20 0.19 0.15 0.10 0.09 0.11 0.11 0.14 0.13 0.13 0.14 0.13 0.16 0.19 0.17 0.21 0.28 0.25 0.21 0.20 0.21 0.22 0.24 0.26 0.18 0.17 0.16 0.12 0.12 0.10 0.23 0.33 0.34 0.28 0.29 0.32 0.31 0.33
0.34 0.33 0.32 0.30 0.29 0.28 0.20 0.21 0.14 0.10 0.09 0.12 0.13 0.13 0.13 0.15 0.17 0.15 0.16 0.20 0.24 0.28 0.22 0.16 0.13 0.13 0.15 0.19 0.24 0.24 0.24 0.20 0.15 0.12 0.11 0.15 0.20 0.27 0.29 0.26 0.25 0.32 0.28 0.27
0.32 0.32 0.32 0.30 0.29 0.28 0.23 0.23 0.21 0.13 0.09 0.09 0.14 0.12 0.14 0.12 0.12 0.13 0.16 0.24 0.28 0.24 0.17 0.14 0.11 0.10 0.14 0.14 0.18 0.26 0.25 0.23 0.18 0.16 0.12 0.10 0.20 0.29 0.36 0.38 0.20 0.33 0.30 0.26
0.32 0.31 0.31 0.30 0.30 0.29 0.26 0.24 0.24 0.14 0.09 0.15 0.15 0.10 0.12 0.18 0.16 0.14 0.17 0.19 0.19 0.21 0.14 0.11 0.10 0.10 0.16 0.10 0.11 0.15 0.17 0.17 0.12 0.13 0.14 0.17 0.24 0.28 0.31 0.17 0.20 0.32 0.29 0.24
0.32 0.30 0.30 0.31 0.32 0.31 0.26 0.25 0.28 0.16 0.12 0.16 0.18 0.19 0.16 0.18 0.19 0.13 0.19 0.15 0.17 0.15 0.11 0.12 0.12 0.12 0.15 0.13 0.14 0.13 0.13 0.11 0.10 0.12 0.11 0.10 0.24 0.24 0.20 0.29 0.32 0.27 0.24 0.22
0.28 0.27 0.28 0.29 0.30 0.29 0.27 0.20 0.28 0.25 0.13 0.15 0.24 0.23 0.26 0.24 0.26 0.22 0.23 0.18 0.18 0.19 0.13 0.13 0.15 0.13 0.15 0.14 0.09 0.18 0.11 0.16 0.13 0.12 0.11 0.18 0.24 0.25 0.29 0.30 0.29 0.26 0.25 0.21
0.27 0.26 0.25 0.25 0.24 0.25 0.24 0.24 0.25 0.19 0.13 0.15 0.15 0.13 0.22 0.30 0.32 0.34 0.20 0.23 0.26 0.24 0.26 0.18 0.16 0.12 0.17 0.11 0.12 0.14 0.17 0.23 0.17 0.16 0.15 0.17 0.20 0.24 0.26 0.26 0.25 0.26 0.25 0.22
0.28 0.26 0.25 0.25 0.24 0.23 0.24 0.21 0.25 0.20 0.15 0.09 0.13 0.25 0.24 0.32 0.32 0.32 0.33 0.30 0.33 0.31 0.30 0.21 0.17 0.14 0.21 0.16 0.17 0.17 0.19 0.20 0.18 0.17 0.18 0.19 0.19 0.20 0.24 0.28 0.28 0.26 0.25 0.21
0.27 0.25 0.25 0.24 0.24 0.22 0.21 0.25 0.29 0.29 0.15 0.09 0.13 0.21 0.26 0.27 0.28 0.28 0.33 0.33 0.31 0.30 0.26 0.23 0.19 0.22 0.21 0.22 0.21 0.16 0.19 0.17 0.16 0.15 0.21 0.21 0.20 0.22 0.25 0.25 0.24 0.26 0.24 0.21
0.28 0.27 0.26 0.25 0.24 0.21 0.17 0.12 0.23 0.33 0.28 0.12 0.08 0.19 0.21 0.27 0.28 0.29 0.31 0.34 0.34 0.33 0.28 0.25 0.26 0.28 0.24 0.18 0.16 0.18 0.20 0.23 0.24 0.20 0.25 0.25 0.23 0.25 0.26 0.24 0.25 0.28 0.27 0.25
0.28 0.28 0.28 0.26 0.24 0.23 0.17 0.17 0.25 0.37 0.31 0.14 0.09 0.12 0.22 0.28 0.29 0.29 0.30 0.33 0.31 0.31 0.29 0.25 0.24 0.24 0.28 0.22 0.15 0.18 0.21 0.23 0.25 0.27 0.27 0.21 0.22 0.21 0.26 0.26 0.27 0.29 0.28 0.27
0.29 0.29 0.30 0.29 0.26 0.24 0.24 0.36 0.41 0.40 0.24 0.20 0.10 0.13 0.20 0.29 0.24 0.23 0.31 0.27 0.30 0.29 0.27 0.28 0.24 0.27 0.27 0.18 0.18 0.20 0.22 0.24 0.26 0.28 0.28 0.24 0.24 0.25 0.26 0.28 0.28 0.26 0.25 0.27
0.30 0.29 0.29 0.26 0.24 0.21 0.30 0.43 0.43 0.38 0.26 0.15 0.14 0.12 0.12 0.28 0.26 0.28 0.28 0.30 0.23 0.31 0.25 0.25 0.26 0.22 0.17 0.17 0.18 0.20 0.23 0.23 0.24 0.27 0.26 0.25 0.24 0.25 0.26 0.26 0.26 0.25 0.25 0.26
0.33 0.32 0.25 0.21 0.33 0.41 0.40 0.34 0.28 0.29 0.31 0.28 0.17 0.19 0.16 0.24 0.25 0.24 0.24 0.27 0.22 0.19 0.22 0.29 0.23 0.19 0.20 0.21 0.22 0.24 0.26 0.27 0.28 0.25 0.23 0.24 0.25 0.26 0.26 0.25 0.26 0.25 0.25 0.25
0.30 0.26 0.25 0.38 0.44 0.33 0.27 0.21 0.20 0.22 0.19 0.23 0.22 0.18 0.16 0.25 0.21 0.21 0.24 0.20 0.21 0.17 0.20 0.20 0.18 0.16 0.19 0.23 0.24 0.28 0.30 0.31 0.31 0.30 0.30 0.31 0.31 0.29 0.27 0.26 0.25 0.24 0.23 0.22
0.30 0.31 0.39 0.38 0.29 0.23 0.18 0.17 0.21 0.20 0.17 0.21 0.20 0.19 0.18 0.20 0.25 0.21 0.26 0.21 0.22 0.16 0.25 0.20 0.16 0.18 0.21 0.23 0.25 0.28 0.30 0.31 0.31 0.33 0.34 0.35 0.33 0.30 0.28 0.24 0.22 0.22 0.21 0.21
0.35 0.26 0.24 0.21 0.22 0.15 0.14 0.13 0.16 0.18 0.19 0.22 0.24 0.21 0.23 0.26 0.29 0.27 0.24 0.21 0.19 0.25 0.19 0.16 0.17 0.20 0.23 0.27 0.29 0.31 0.34 0.34 0.34 0.35 0.35 0.31 0.31 0.28 0.23 0.21 0.21 0.20 0.18 0.18
0.20 0.17 0.12 0.13 0.14 0.15 0.16 0.15 0.18 0.22 0.22 0.24 0.27 0.25 0.26 0.28 0.25 0.26 0.20 0.23 0.23 0.17 0.15 0.14 0.17 0.21 0.24 0.30 0.32 0.33 0.32 0.33 0.32 0.32 0.31 0.29 0.27 0.24 0.23 0.21 0.20 0.19 0.17 0.19
0.17 0.16 0.10 0.13 0.16 0.19 0.22 0.25 0.24 0.25 0.27 0.27 0.27 0.27 0.27 0.25 0.24 0.26 0.23 0.20 0.17 0.17 0.15 0.17 0.22 0.26 0.27 0.30 0.32 0.33 0.32 0.33 0.33 0.34 0.31 0.30 0.30 0.27 0.24 0.21 0.19 0.19 0.20 0.20
0.20 0.19 0.16 0.20 0.20 0.18 0.21 0.24 0.24 0.29 0.30 0.30 0.29 0.24 0.23 0.22 0.24 0.22 0.19 0.18 0.16 0.17 0.20 0.22 0.25 0.27 0.29 0.30 0.32 0.33 0.34 0.34 0.34 0.34 0.33 0.34 0.32 0.30 0.29 0.22 0.17 0.20 0.22 0.22
0.20 0.17 0.21 0.21 0.23 0.25 0.23 0.25 0.26 0.32 0.30 0.24 0.25 0.20 0.19 0.25 0.22 0.21 0.23 0.19 0.20 0.22 0.23 0.25 0.28 0.28 0.29 0.32 0.32 0.33 0.34 0.35 0.35 0.35 0.35 0.34 0.34 0.34 0.31 0.21 0.18 0.20 0.23 0.24

GFSNW_prec_pwat_240.txt.gz
Precipitable_Water
0.97 0.96 0.91 0.90 0.90 0.78 0.64 0.43 0.21 0.35 0.32 0.15 0.18 0.14 0.15 0.16 0.15 0.17 0.15 0.16 0.14 0.13 0.12 0.12 0.11 0.11 0.14 0.19 0.21 0.17 0.24 0.22 0.17 0.18 0.27 0.30 0.30 0.29 0.30 0.22 0.22 0.27 0.22 0.20
0.97 0.93 0.89 0.86 0.78 0.55 0.33 0.24 0.23 0.33 0.23 0.11 0.14 0.16 0.16 0.16 0.14 0.14 0.14 0.14 0.16 0.17 0.14 0.12 0.13 0.14 0.19 0.21 0.21 0.20 0.24 0.20 0.15 0.16 0.21 0.25 0.26 0.30 0.32 0.32 0.33 0.25 0.18 0.20
0.92 0.85 0.78 0.80 0.66 0.38 0.27 0.21 0.14 0.18 0.21 0.20 0.14 0.13 0.12 0.11 0.16 0.14 0.16 0.15 0.18 0.17 0.14 0.15 0.13 0.14 0.18 0.23 0.24 0.26 0.26 0.20 0.18 0.15 0.19 0.25 0.25 0.27 0.30 0.28 0.22 0.22 0.22 0.24
0.87 0.82 0.73 0.65 0.43 0.29 0.23 0.20 0.16 0.17 0.12 0.15 0.15 0.14 0.11 0.09 0.09 0.16 0.17 0.14 0.16 0.14 0.10 0.12 0.11 0.13 0.17 0.22 0.24 0.24 0.22 0.15 0.18 0.20 0.23 0.25 0.27 0.26 0.27 0.26 0.26 0.21 0.24 0.24
0.77 0.68 0.46 0.41 0.34 0.27 0.19 0.15 0.15 0.19 0.16 0.16 0.13 0.12 0.12 0.10 0.12 0.13 0.12 0.14 0.15 0.17 0.12 0.13 0.10 0.15 0.16 0.17 0.22 0.20 0.22 0.15 0.18 0.15 0.20 0.24 0.25 0.26 0.27 0.26 0.27 0.26 0.26 0.25
0.60 0.43 0.40 0.37 0.32 0.27 0.20 0.23 0.24 0.19 0.16 0.14 0.11 0.11 0.12 0.12 0.14 0.16 0.18 0.17 0.17 0.15 0.16 0.19 0.19 0.21 0.21 0.21 0.19 0.19 0.19 0.17 0.15 0.12 0.17 0.19 0.18 0.24 0.26 0.27 0.28 0.26 0.21 0.28
0.41 0.39 0.39 0.36 0.31 0.26 0.21 0.22 0.18 0.14 0.12 0.12 0.12 0.12 0.13 0.12 0.14 0.14 0.17 0.20 0.17 0.20 0.26 0.23 0.22 0.22 0.22 0.22 0.24 0.25 0.21 0.20 0.18 0.14 0.15 0.11 0.23 0.33 0.32 0.28 0.29 0.30 0.28 0.25
0.36 0.36 0.36 0.35 0.31 0.26 0.21 0.21 0.16 0.14 0.11 0.13 0.13 0.13 0.14 0.14 0.16 0.16 0.17 0.20 0.23 0.26 0.22 0.16 0.14 0.14 0.16 0.19 0.23 0.23 0.24 0.22 0.18 0.14 0.14 0.17 0.20 0.27 0.28 0.25 0.24 0.29 0.25 0.24
0.32 0.32 0.32 0.31 0.29 0.26 0.23 0.21 0.21 0.16 0.13 0.13 0.15 0.14 0.15 0.11 0.13 0.14 0.17 0.24 0.26 0.23 0.19 0.15 0.10 0.08 0.12 0.11 0.16 0.24 0.24 0.21 0.17 0.16 0.13 0.11 0.18 0.27 0.33 0.36 0.19 0.28 0.25 0.22
0.33 0.32 0.31 0.30 0.28 0.27 0.23 0.21 0.22 0.14 0.12 0.18 0.18 0.14 0.14 0.17 0.16 0.14 0.17 0.19 0.19 0.22 0.15 0.12 0.11 0.10 0.14 0.10 0.11 0.12 0.13 0.13 0.12 0.13 0.14 0.17 0.19 0.23 0.29 0.16 0.19 0.26 0.23 0.19
0.34 0.33 0.32 0.30 0.29 0.27 0.22 0.22 0.24 0.16 0.15 0.18 0.20 0.20 0.15 0.15 0.17 0.13 0.17 0.16 0.18 0.17 0.12 0.13 0.12 0.13 0.14 0.13 0.13 0.12 0.12 0.11 0.10 0.12 0.09 0.09 0.19 0.19 0.15 0.24 0.32 0.25 0.24 0.20
0.33 0.32 0.31 0.30 0.28 0.26 0.26 0.19 0.25 0.24 0.16 0.18 0.26 0.28 0.27 0.25 0.23 0.18 0.21 0.18 0.17 0.18 0.14 0.14 0.15 0.14 0.15 0.13 0.11 0.16 0.14 0.16 0.14 0.13 0.12 0.20 0.22 0.22 0.27 0.26 0.27 0.24 0.24 0.22
0.30 0.30 0.30 0.28 0.26 0.24 0.24 0.21 0.22 0.19 0.16 0.18 0.19 0.19 0.26 0.30 0.29 0.31 0.19 0.22 0.24 0.22 0.25 0.19 0.17 0.13 0.17 0.13 0.15 0.13 0.19 0.22 0.17 0.18 0.18 0.20 0.22 0.26 0.28 0.28 0.28 0.26 0.25 0.23
0.26 0.24 0.23 0.23 0.23 0.24 0.23 0.19 0.22 0.18 0.16 0.13 0.15 0.25 0.24 0.32 0.32 0.30 0.31 0.27 0.30 0.29 0.29 0.20 0.17 0.14 0.19 0.17 0.18 0.15 0.19 0.22 0.18 0.18 0.21 0.21 0.24 0.24 0.25 0.27 0.28 0.26 0.26 0.25
0.25 0.25 0.24 0.22 0.23 0.24 0.23 0.23 0.24 0.23 0.17 0.13 0.15 0.24 0.28 0.30 0.29 0.28 0.31 0.30 0.30 0.26 0.23 0.22 0.20 0.23 0.21 0.22 0.21 0.16 0.20 0.17 0.17 0.17 0.22 0.21 0.22 0.24 0.26 0.28 0.25 0.26 0.27 0.27
0.25 0.25 0.24 0.22 0.22 0.22 0.17 0.12 0.22 0.27 0.28 0.16 0.13 0.23 0.24 0.27 0.29 0.26 0.29 0.32 0.32 0.30 0.25 0.24 0.26 0.29 0.24 0.18 0.15 0.20 0.23 0.22 0.22 0.21 0.25 0.26 0.27 0.24 0.26 0.25 0.26 0.27 0.28 0.28
0.26 0.26 0.24 0.22 0.20 0.21 0.16 0.16 0.22 0.31 0.27 0.15 0.13 0.15 0.23 0.29 0.28 0.28 0.30 0.34 0.31 0.30 0.29 0.25 0.24 0.26 0.27 0.20 0.15 0.19 0.24 0.23 0.24 0.26 0.27 0.25 0.25 0.22 0.25 0.26 0.27 0.29 0.29 0.29
0.28 0.27 0.25 0.27 0.30 0.30 0.27 0.31 0.37 0.32 0.20 0.17 0.12 0.16 0.20 0.30 0.24 0.23 0.31 0.28 0.30 0.30 0.27 0.30 0.25 0.28 0.28 0.18 0.19 0.21 0.23 0.24 0.24 0.26 0.29 0.28 0.26 0.25 0.26 0.28 0.28 0.26 0.26 0.27
0.29 0.29 0.26 0.26 0.29 0.25 0.31 0.40 0.38 0.34 0.23 0.13 0.14 0.14 0.16 0.27 0.26 0.29 0.29 0.32 0.24 0.33 0.26 0.27 0.28 0.24 0.19 0.20 0.20 0.20 0.23 0.24 0.25 0.28 0.28 0.28 0.25 0.26 0.28 0.29 0.28 0.27 0.26 0.25
0.31 0.31 0.26 0.22 0.30 0.42 0.39 0.31 0.26 0.26 0.26 0.23 0.16 0.21 0.18 0.24 0.25 0.25 0.26 0.28 0.24 0.21 0.25 0.30 0.24 0.20 0.23 0.24 0.24 0.24 0.25 0.27 0.29 0.27 0.26 0.27 0.26 0.28 0.29 0.29 0.29 0.28 0.25 0.24
0.31 0.29 0.27 0.38 0.43 0.34 0.28 0.22 0.20 0.20 0.18 0.21 0.21 0.22 0.19 0.28 0.22 0.23 0.26 0.22 0.23 0.18 0.23 0.21 0.19 0.19 0.22 0.25 0.24 0.27 0.28 0.30 0.31 0.33 0.32 0.31 0.31 0.31 0.30 0.30 0.27 0.24 0.22 0.21
0.33 0.35 0.40 0.37 0.29 0.23 0.18 0.16 0.19 0.19 0.18 0.21 0.19 0.19 0.21 0.24 0.29 0.23 0.24 0.21 0.22 0.18 0.26 0.21 0.17 0.20 0.23 0.24 0.25 0.28 0.31 0.32 0.32 0.33 0.33 0.35 0.33 0.31 0.29 0.25 0.23 0.21 0.20 0.20
0.36 0.29 0.25 0.22 0.22 0.16 0.13 0.12 0.16 0.18 0.21 0.22 0.21 0.17 0.20 0.21 0.24 0.23 0.24 0.20 0.21 0.26 0.21 0.19 0.18 0.22 0.23 0.26 0.29 0.31 0.33 0.34 0.34 0.34 0.36 0.33 0.31 0.30 0.27 0.25 0.24 0.20 0.18 0.19
0.23 0.17 0.14 0.15 0.14 0.15 0.16 0.16 0.18 0.22 0.23 0.23 0.24 0.22 0.25 0.28 0.24 0.25 0.20 0.24 0.24 0.19 0.17 0.16 0.20 0.22 0.24 0.27 0.31 0.32 0.32 0.33 0.33 0.34 0.34 0.33 0.31 0.31 0.30 0.30 0.29 0.23 0.17 0.19
0.19 0.18 0.11 0.12 0.16 0.20 0.23 0.25 0.24 0.25 0.27 0.28 0.26 0.27 0.27 0.23 0.22 0.23 0.22 0.20 0.18 0.19 0.17 0.20 0.22 0.25 0.27 0.29 0.31 0.32 0.32 0.32 0.32 0.35 0.34 0.33 0.32 0.32 0.31 0.32 0.32 0.27 0.19 0.19
0.20 0.19 0.16 0.18 0.16 0.17 0.21 0.23 0.25 0.29 0.30 0.32 0.30 0.25 0.22 0.21 0.21 0.20 0.19 0.18 0.17 0.19 0.22 0.24 0.25 0.26 0.28 0.30 0.31 0.33 0.34 0.34 0.35 0.35 0.35 0.35 0.34 0.32 0.32 0.34 0.33 0.27 0.21 0.21
0.19 0.17 0.21 0.22 0.22 0.22 0.22 0.25 0.28 0.32 0.29 0.26 0.25 0.21 0.20 0.25 0.20 0.20 0.22 0.19 0.22 0.24 0.26 0.27 0.27 0.28 0.30 0.31 0.32 0.33 0.33 0.34 0.35 0.36 0.36 0.35 0.36 0.35 0.33 0.32 0.32 0.29 0.22 0.22